SCP
0 0 0 0 0 0 0 0 0 0 0 1 1 1 1 1 1 1 1 1 1 2 2 2 2 2 2 2 2 2 1 1 1 1 1 1 1 1 1 1 1 1 1 1
0 0 0 0 0 0 0 0 0 0 0 1 1 1 1 1 1 1 1 1 1 2 2 2 2 2 2 2 2 2 2 1 1 1 1 1 1 1 1 1 1 1 1 1
0 0 0 0 0 0 0 0 0 0 1 1 1 1 1 1 1 1 1 1 2 2 2 2 2 2 2 2 2 2 2 2 2 1 1 1 1 1 1 1 1 1 1 1
0 0 0 0 0 0 0 0 0 0 1 1 1 1 1 1 1 1 1 1 2 2 2 2 2 2 2 2 2 2 2 2 2 2 1 1 1 1 1 1 1 1 1 1
0 0 0 0 0 0 0 0 0 1 1 1 1 1 1 1 1 1 1 1 2 2 2 2 2 2 2 2 2 2 2 2 2 2 1 1 1 1 1 1 1 1 1 1
0 0 0 0 0 0 0 0 0 1 1 1 1 1 1 1 1 1 1 1 1 1 1 2 2 2 2 2 2 2 2 2 2 2 1 1 1 1 1 1 1 1 1 1
0 0 0 0 0 0 0 1 1 1 1 1 1 1 1 1 1 1 1 1 1 1 1 2 2 2 2 2 2 2 2 2 2 2 1 1 1 1 1 1 1 1 1 1
0 0 0 0 0 1 1 1 1 1 1 1 1 1 1 1 1 1 1 1 2 1 2 2 2 2 2 2 2 2 2 2 2 2 1 1 1 1 1 1 1 1 1 1
0 0 0 0 0 1 1 1 1 1 1 1 1 1 1 1 1 2 2 2 2 2 2 2 2 2 2 2 2 2 2 2 2 1 1 1 1 1 1 1 1 1 1 1
0 0 0 0 0 1 1 1 1 1 1 1 1 1 1 1 2 2 2 2 2 2 2 2 2 2 2 2 2 2 2 2 2 1 1 1 1 1 1 1 1 1 1 1
0 0 0 0 0 0 1 1 1 0 0 1 1 1 1 2 2 2 2 2 2 2 2 2 2 2 2 2 2 2 2 2 1 1 1 1 1 1 1 1 1 1 1 1
0 0 0 0 0 0 0 0 0 0 0 1 1 1 1 1 2 1 1 1 1 1 1 2 2 2 2 2 2 2 2 1 1 1 1 1 1 1 1 1 1 0 0 0
0 0 0 0 0 0 0 0 0 0 0 1 1 1 1 1 1 1 1 1 1 1 1 1 1 1 1 2 2 2 1 1 1 1 1 1 1 1 0 0 0 0 0 0
0 0 0 0 0 0 0 0 0 0 1 1 1 1 1 1 1 1 1 1 1 1 1 1 1 1 1 1 2 1 1 1 1 1 1 1 1 1 1 0 0 0 0 0
0 0 0 0 0 0 0 0 0 0 1 1 1 1 1 1 1 1 1 1 1 1 1 1 1 1 1 1 1 1 1 1 0 1 1 1 1 1 1 0 0 0 0 0
0 0 0 0 0 0 0 0 0 0 1 1 1 1 1 1 1 1 1 1 1 1 1 1 1 1 1 1 1 1 1 1 0 0 0 0 0 0 0 0 0 0 0 0
0 0 0 0 0 0 0 0 0 0 0 1 1 1 1 1 1 1 1 1 1 1 1 1 1 1 1 1 1 1 1 0 0 0 0 0 0 0 0 0 0 0 0 0
0 0 0 0 0 0 0 0 0 0 0 0 0 1 1 1 1 1 1 1 0 0 0 0 0 1 1 0 0 0 0 0 0 0 0 0 0 0 0 0 0 0 0 0
0 0 0 0 0 0 0 0 0 0 0 0 0 1 1 1 1 1 1 1 1 0 0 0 0 0 0 0 0 0 0 0 0 0 1 1 1 1 1 0 0 0 0 0
0 0 0 0 0 0 0 0 0 0 0 0 0 0 1 1 1 1 1 1 0 0 0 0 0 0 0 0 0 0 0 0 0 1 1 1 1 1 0 0 0 0 0 0
0 0 0 0 0 0 0 0 0 0 0 0 0 0 0 0 1 1 1 0 0 0 0 0 0 0 0 0 0 0 0 0 1 1 1 1 1 0 0 0 0 0 0 0
0 0 0 0 0 0 0 0 0 0 0 0 0 0 0 0 0 0 0 0 0 0 0 0 0 0 0 0 0 0 0 0 0 0 0 0 0 0 1 1 1 0 0 0
0 0 0 0 0 0 0 0 0 0 0 0 0 0 0 0 0 0 0 0 0 0 0 0 0 0 0 0 0 0 0 0 0 0 0 0 0 0 0 1 1 0 0 0
0 0 0 0 0 0 0 0 0 0 0 0 0 0 0 0 0 0 0 0 0 0 0 0 0 0 0 0 0 0 0 0 0 0 0 0 0 0 0 0 0 0 0 0
0 0 0 0 0 0 0 0 0 0 0 0 0 0 0 0 0 0 0 0 0 0 0 0 0 0 0 0 0 0 0 0 0 0 0 0 0 0 0 0 0 0 0 0
0 0 0 0 0 0 0 0 0 0 0 0 0 0 0 0 0 0 0 0 0 0 0 0 0 0 0 0 0 0 0 0 0 0 0 0 0 0 0 0 0 0 0 0
0 0 0 0 0 0 0 0 0 0 0 0 0 0 0 0 0 0 0 0 0 0 0 0 0 0 0 0 0 0 0 0 0 0 0 0 0 0 0 0 0 0 0 0
Wind_Speed
12 11 11 11 10 11 11 10 9 5 4 4 3 7 8 8 8 8 8 7 7 6 6 5 6 6 5 5 5 5 4 4 4 3 2 2 2 2 2 2 2 2 2 2
13 13 13 13 12 11 11 9 8 6 3 2 3 6 7 6 7 7 6 7 7 6 6 5 4 4 4 4 4 4 4 3 3 2 2 2 2 2 2 2 2 2 2 2
12 11 13 13 11 10 9 9 7 4 1 4 3 4 6 6 6 6 6 6 6 6 5 4 4 3 3 3 3 3 3 3 3 3 3 3 3 2 2 2 2 2 2 2
11 12 15 9 7 6 6 5 4 0 2 3 6 6 5 5 5 5 6 6 5 5 5 4 4 3 2 2 3 3 3 3 3 3 3 3 3 2 2 2 2 2 2 2
9 12 13 9 5 4 5 4 2 0 2 3 5 6 5 5 4 5 6 6 4 4 4 4 3 3 2 2 2 2 2 2 2 2 2 3 3 3 2 2 3 3 2 2
9 11 11 6 4 4 4 3 3 4 4 3 2 2 3 5 4 5 7 5 4 3 4 4 3 3 2 2 2 2 2 2 2 2 3 3 3 3 2 2 3 3 3 2
12 12 6 5 4 4 4 2 4 4 3 3 4 3 3 4 5 5 6 5 4 4 4 3 3 3 2 1 1 1 1 1 2 2 3 3 2 2 3 3 3 3 3 3
9 11 4 6 4 2 2 2 4 5 4 5 6 4 2 4 5 4 5 4 3 2 3 3 2 2 2 1 1 1 1 2 2 3 4 2 2 2 3 4 4 3 3 3
2 2 1 3 3 3 2 2 4 3 3 5 4 2 1 3 4 3 3 3 2 2 2 1 2 2 1 1 0 1 1 2 3 3 3 3 3 3 3 3 4 4 3 4
3 2 2 3 4 4 4 3 3 2 2 3 3 3 2 2 3 2 2 1 1 1 1 1 1 1 1 1 0 1 2 2 3 3 4 4 4 4 4 4 4 4 4 4
4 4 4 3 3 3 3 4 3 3 3 2 2 1 2 2 2 1 1 1 0 0 1 1 1 1 1 1 0 1 2 3 3 3 3 3 3 3 4 3 4 4 3 2
3 1 2 2 1 3 3 2 2 2 3 2 1 1 1 1 1 0 0 1 1 1 1 1 1 1 1 0 0 1 2 3 3 3 2 3 3 2 1 3 4 4 4 3
4 3 3 3 2 2 1 2 2 1 2 2 1 1 1 1 1 1 1 1 2 1 1 1 1 2 1 1 2 2 3 4 4 3 2 2 2 3 3 2 2 4 5 5
3 4 4 3 2 2 3 3 2 2 2 2 2 1 1 1 1 1 1 2 2 2 2 2 2 2 2 2 2 3 4 4 4 3 3 3 3 3 4 4 3 3 4 7
4 4 5 4 3 3 3 2 2 1 1 1 2 2 1 0 0 1 1 2 2 2 2 2 2 2 2 3 3 4 4 3 3 3 3 3 3 3 3 4 3 3 3 3
6 5 5 4 4 4 4 3 3 3 2 2 2 1 1 0 1 1 1 2 2 3 2 2 2 2 2 3 4 4 3 4 4 4 4 3 3 3 3 2 3 2 3 2
6 5 4 3 4 4 3 3 3 2 2 2 2 2 2 2 1 1 2 2 2 2 2 2 2 2 2 3 4 4 4 4 6 5 4 3 3 3 3 3 3 2 2 2
4 4 4 4 4 4 3 3 2 2 2 2 2 2 3 2 2 2 2 3 3 3 3 2 2 2 2 3 3 4 4 4 4 4 3 3 3 3 3 3 3 2 1 2
4 4 4 4 4 4 2 2 2 2 2 2 2 2 2 3 3 3 3 3 4 4 3 3 3 4 4 3 4 3 4 5 4 4 4 3 4 3 3 2 2 2 2 1
4 4 4 5 5 5 4 3 2 2 2 2 2 2 3 4 4 4 4 5 4 3 3 2 3 4 4 3 4 5 5 5 5 4 4 3 3 3 3 3 2 2 1 1
4 4 4 4 4 4 4 4 4 3 3 3 3 3 4 4 4 4 5 5 2 2 3 3 3 3 3 3 5 5 5 5 4 4 3 3 3 2 2 2 2 2 1 1
4 4 4 4 4 4 4 4 3 4 4 4 4 5 5 5 5 4 4 3 2 2 3 3 2 2 3 5 4 4 4 4 3 3 3 3 3 2 2 2 2 2 2 1
5 5 5 5 5 5 5 4 4 4 5 5 4 4 5 4 4 4 3 2 2 1 2 2 2 2 3 3 4 4 4 3 3 3 3 2 3 2 2 2 2 2 2 1
5 5 5 5 5 5 5 5 5 4 4 4 4 3 4 4 3 3 2 1 1 2 2 1 1 2 3 4 4 4 4 3 2 2 2 3 3 3 3 2 3 2 1 1
5 5 5 5 5 4 4 5 5 4 4 3 4 3 3 3 3 3 3 2 2 2 2 2 2 3 3 4 4 4 3 2 3 2 2 3 3 3 3 2 2 1 1 1
4 4 3 4 4 4 4 3 3 3 3 2 3 3 3 3 2 2 2 2 3 3 3 2 2 3 4 4 3 2 2 2 2 2 2 3 3 3 2 2 2 2 1 1
4 3 3 3 3 4 4 3 2 2 2 2 2 3 3 3 3 3 3 3 3 3 2 2 2 2 3 3 2 2 1 2 1 1 2 2 2 2 2 2 2 2 2 2
Wind_Direction
273 274 266 260 252 252 254 262 271 271 244 209 162 116 117 127 131 131 133 131 127 121 108 113 122 130 134 139 140 141 141 148 154 163 164 176 183 191 193 199 210 201 220 234
272 272 272 271 265 258 260 263 261 261 267 126 106 102 119 126 126 133 133 131 125 119 117 113 108 119 126 129 131 133 144 154 155 160 175 188 205 214 212 216 223 213 221 239
273 274 275 264 265 267 270 273 273 263 176 132 131 129 138 136 133 135 133 127 123 121 118 115 112 111 109 124 134 141 149 157 167 181 189 196 215 209 223 231 227 220 228 227
265 270 264 269 280 278 272 283 303 137 161 146 122 107 98 113 123 127 125 119 122 127 125 130 127 115 107 118 133 147 156 168 174 187 197 203 209 211 216 219 224 226 229 229
263 264 264 269 290 308 296 281 314 120 113 107 105 111 99 79 94 112 109 105 103 113 118 119 118 113 123 131 137 149 172 193 189 188 204 212 216 216 209 213 226 229 225 227
249 260 266 291 321 329 280 265 50 89 94 101 121 172 116 94 78 96 104 102 102 110 104 100 103 123 141 144 152 176 193 203 199 201 221 224 222 220 221 221 230 234 231 229
250 254 258 304 307 276 266 22 45 73 83 68 60 59 81 100 93 92 93 92 90 100 112 117 131 143 148 138 161 203 212 214 206 203 225 222 218 216 217 225 234 231 225 228
248 255 266 347 336 2 45 33 48 59 62 74 77 80 86 97 96 100 99 95 92 92 109 124 136 144 142 149 177 226 240 230 222 212 228 227 199 225 227 225 227 225 224 230
290 293 59 24 15 16 22 63 76 90 100 101 106 112 121 100 98 96 99 88 78 100 112 123 139 146 160 153 277 272 273 253 240 231 215 211 214 228 232 227 226 226 224 231
301 297 333 27 37 18 355 30 54 83 119 133 141 151 127 93 86 83 86 97 61 66 66 85 119 140 153 145 161 277 273 270 250 234 215 201 206 212 222 234 233 230 230 234
265 296 316 5 19 352 2 7 19 24 16 48 67 92 97 99 100 109 99 70 33 14 348 337 53 28 355 25 222 271 269 273 267 248 227 205 212 225 226 231 232 234 238 235
270 292 305 320 332 9 10 332 347 17 347 358 35 54 56 76 66 78 91 28 324 312 317 311 319 303 347 18 251 273 273 275 274 271 244 212 209 226 242 234 224 213 215 216
340 333 319 314 334 342 300 315 339 331 317 330 352 342 347 13 9 0 345 324 302 303 312 306 284 283 276 271 246 253 266 273 274 272 270 253 229 225 231 246 237 229 231 222
338 320 308 299 290 303 322 330 329 319 335 346 322 295 280 280 284 289 318 308 303 303 294 286 283 288 282 277 262 254 259 269 271 271 272 268 257 243 236 231 230 230 224 219
283 275 271 279 297 297 294 303 296 289 310 311 299 292 277 224 305 335 320 305 308 302 304 300 297 301 307 292 280 278 274 269 268 274 273 268 264 255 247 235 228 219 204 200
283 275 271 273 283 285 290 289 282 279 287 303 308 306 321 311 266 249 279 289 282 287 291 289 289 300 308 299 295 285 275 273 269 270 269 267 266 267 260 251 247 222 210 195
278 280 274 274 285 287 290 286 290 306 323 317 317 330 306 264 255 258 266 272 275 280 277 267 273 284 289 288 283 280 279 275 267 263 259 263 266 271 266 257 260 249 224 182
283 292 297 294 295 298 299 304 313 326 328 322 324 318 308 295 286 292 296 300 294 285 277 269 272 274 264 262 263 266 274 273 271 266 262 268 272 270 268 266 266 254 231 172
318 316 318 322 323 309 305 311 308 317 323 318 318 327 322 311 306 302 299 292 283 278 273 266 255 263 266 265 274 261 265 268 270 277 280 267 256 255 263 262 261 257 238 179
342 336 332 328 321 325 337 335 328 319 318 309 301 280 274 286 295 292 291 281 278 286 287 288 265 267 267 269 273 265 263 264 263 266 274 276 268 266 262 259 252 249 240 205
355 343 330 324 329 331 330 331 333 324 315 302 299 287 282 285 285 287 282 282 287 296 285 263 263 275 275 279 261 262 264 266 265 265 270 277 273 272 272 268 262 251 241 234
350 341 335 330 322 317 315 313 310 306 306 303 297 287 282 277 275 271 273 278 288 304 286 280 276 289 283 273 267 270 270 270 274 274 272 280 289 287 276 271 263 259 253 245
341 336 336 330 319 307 305 303 297 294 292 287 282 284 289 292 294 294 296 307 308 300 289 299 308 304 286 270 272 274 279 276 275 281 283 290 291 289 282 277 275 269 263 264
325 328 324 319 312 301 296 293 290 287 286 283 279 281 284 283 283 281 293 315 295 281 294 305 248 268 271 274 277 278 284 286 275 275 284 277 271 276 278 271 269 277 285 282
302 300 302 303 298 290 284 284 284 286 293 296 293 287 279 277 284 300 315 319 299 268 267 246 229 242 255 273 277 279 290 302 304 297 277 276 280 284 288 279 265 269 281 287
302 306 308 301 305 301 301 294 290 294 294 305 324 327 327 327 322 314 302 296 296 287 279 269 235 226 247 261 266 269 269 268 268 272 290 297 299 298 303 319 336 349 350 357
285 283 280 291 299 296 293 292 295 303 320 330 321 323 331 339 341 341 333 320 309 302 291 283 280 279 275 269 272 282 285 292 298 308 313 317 327 340 348 354 1 6 12 23